Theta_e
288 281 279 279 282 282 282 286 289 285 288 287 286 283 282 281 281 282 285 289 288 287 284 285 286 286 287 288 291 293 295 295 295 295 296 297 297 297 297 298 298 298 299 301 302 303 305 306 308 311 317 320 321 323 324 324 324 325 324 323 322 324 324 324 324 323 323 322 321 321 322 322 323 322 323 323 324 324 324 323 323 322 323 322 321 321
288 282 281 280 283 283 284 285 285 287 288 287 284 281 280 281 282 284 287 288 289 287 283 286 286 286 286 288 290 292 292 294 294 294 296 296 297 298 297 297 298 298 299 300 301 302 302 303 305 308 312 315 317 319 321 322 324 325 325 324 324 323 323 324 324 324 323 324 324 323 322 322 322 322 321 322 323 324 324 324 323 323 323 322 322 321
281 280 282 283 285 284 283 282 283 284 283 283 283 281 279 279 281 283 284 285 287 287 284 282 284 286 288 289 290 290 291 292 293 294 294 295 296 298 298 298 298 299 299 300 301 301 301 301 302 304 308 313 316 318 319 321 322 324 324 325 325 325 324 324 324 324 324 324 324 324 323 323 322 323 324 324 324 323 323 324 324 323 323 323 322 322
279 282 285 285 285 284 282 281 281 281 281 280 280 280 280 279 280 278 282 284 286 286 283 285 283 285 284 285 286 288 289 290 293 293 293 295 296 296 298 298 298 298 299 299 300 300 301 300 300 301 303 307 313 316 317 318 320 322 323 324 325 326 326 325 325 323 325 325 324 324 323 320 323 322 321 322 322 322 322 323 324 324 324 323 323 323
281 286 287 283 284 284 282 281 282 281 281 279 280 280 279 280 281 281 282 283 284 284 285 284 283 281 281 285 287 289 288 290 292 294 294 294 296 296 296 296 297 298 298 299 300 301 301 301 301 301 302 304 307 311 315 318 319 321 322 324 325 326 326 326 325 325 325 324 322 322 318 316 316 315 317 317 321 322 322 322 322 323 323 323 323 323
282 286 285 282 282 282 282 283 281 280 279 279 281 283 282 281 281 281 280 283 279 277 283 283 277 275 279 284 285 287 288 290 290 291 293 294 295 295 296 296 297 298 298 299 299 300 301 301 301 301 300 301 302 305 309 314 318 319 321 323 324 325 325 326 326 326 325 324 323 321 321 320 320 320 319 319 321 322 321 322 323 323 323 323 323 323
285 285 283 282 282 282 282 282 283 282 279 276 280 283 283 281 281 280 280 279 274 276 282 282 275 272 279 284 285 285 286 288 290 290 292 293 294 295 295 296 296 297 298 299 299 300 300 301 301 301 301 301 301 303 305 309 314 318 320 321 323 324 325 326 326 326 324 324 323 323 323 323 322 321 322 324 324 323 324 324 323 324 323 324 323 323
286 284 283 282 281 281 280 282 284 282 279 280 285 283 284 282 283 283 280 278 277 279 281 281 280 277 276 281 282 284 284 286 289 290 292 293 294 294 295 296 296 297 298 298 299 300 300 301 301 302 302 302 302 303 304 306 308 313 317 320 321 323 323 325 326 325 325 324 323 323 323 323 323 322 323 323 324 324 324 323 323 324 324 324 324 324
285 283 283 282 280 280 281 283 284 284 283 283 288 287 284 284 284 283 282 280 281 279 276 280 280 275 273 279 283 283 284 285 287 289 290 292 293 294 295 295 296 297 298 298 298 299 299 299 301 303 303 303 303 303 303 305 306 309 313 317 319 321 322 323 324 325 324 324 324 323 323 322 323 324 324 324 322 322 323 323 323 323 324 324 324 325
287 288 287 284 280 280 282 282 282 285 282 284 286 287 284 286 285 284 281 280 278 273 270 278 279 274 275 279 280 280 281 284 286 288 290 291 292 292 293 294 295 296 297 298 298 298 299 299 301 303 304 304 303 303 304 304 306 308 311 315 317 319 321 322 322 323 324 324 323 323 323 322 322 322 323 323 323 322 321 322 322 323 324 324 324 325
283 286 290 288 285 286 284 284 282 284 284 284 283 286 285 281 280 281 280 279 274 266 271 279 279 279 273 278 279 282 283 285 286 288 290 291 291 292 292 293 294 294 296 296 297 298 298 299 300 302 302 303 304 304 304 304 306 307 310 314 314 317 320 321 321 322 323 323 323 323 323 323 322 322 322 321 321 322 321 321 322 322 323 323 324 324
282 282 282 283 287 288 288 285 284 283 282 282 281 281 280 279 281 277 275 275 267 266 274 277 279 279 269 278 281 281 284 286 286 286 287 288 290 290 291 292 293 294 294 295 296 296 297 297 299 301 301 301 302 303 304 304 305 306 307 311 315 317 317 318 320 321 322 322 323 323 323 323 323 323 323 322 321 321 321 321 321 321 321 321 323 323
279 279 280 281 285 285 282 283 285 284 285 281 277 278 270 269 272 267 269 268 263 264 274 277 278 275 276 278 283 286 287 287 287 286 287 287 288 289 290 291 292 293 293 294 294 295 295 296 297 298 300 300 300 301 302 303 304 305 306 306 309 313 316 318 319 319 320 321 322 322 323 323 323 323 323 323 322 322 321 321 320 320 319 319 320 321
274 276 280 282 281 284 283 279 279 280 283 281 279 274 265 264 265 264 264 262 261 269 274 276 276 274 277 279 283 285 287 287 286 287 287 287 288 288 289 290 291 292 292 293 293 294 294 295 296 297 298 299 299 300 301 302 302 303 304 305 305 307 310 313 315 318 319 320 321 322 323 323 322 322 322 323 323 323 322 321 320 320 320 320 320 320
265 268 276 279 279 282 281 280 280 280 281 281 281 277 273 269 264 260 260 258 259 265 272 275 268 266 272 280 285 287 286 286 286 286 287 288 288 289 289 290 291 291 292 292 293 293 293 294 295 296 297 297 298 299 300 301 301 301 301 302 303 304 306 307 308 310 313 317 318 320 321 322 322 322 322 322 322 322 322 322 321 321 320 319 320 320
272 271 278 281 281 280 280 281 282 281 277 278 282 282 275 271 277 268 269 267 268 270 272 271 270 271 278 283 284 284 284 286 287 288 288 287 288 288 289 289 290 291 291 292 292 293 293 294 295 296 296 297 297 298 299 299 300 300 300 300 301 302 303 304 305 306 307 309 312 313 316 319 320 320 320 321 320 320 321 322 321 321 320 320 320 320
273 272 278 279 280 281 280 282 283 283 272 280 279 274 280 283 281 275 275 276 277 271 267 273 274 278 280 281 283 283 284 285 286 286 286 286 287 288 288 289 289 290 291 291 292 292 293 294 294 295 295 296 296 297 297 298 298 298 298 299 299 300 301 302 302 303 304 305 306 308 310 313 315 317 318 319 320 320 320 319 320 320 320 320 319 319
274 273 277 277 278 280 281 281 281 282 283 277 275 278 281 280 276 274 269 269 265 263 265 271 270 274 275 271 282 284 282 284 284 284 285 286 286 287 288 288 289 290 290 291 292 293 293 293 294 294 295 295 295 296 296 297 297 297 297 298 298 299 300 301 301 301 301 302 303 304 305 306 308 312 314 316 317 317 317 317 317 317 317 318 318 318
276 267 272 277 278 279 280 280 279 281 282 282 279 281 276 271 274 278 270 265 266 264 264 271 273 274 276 277 279 280 279 281 282 284 284 285 286 286 287 288 289 290 291 291 292 292 293 293 293 294 294 295 295 296 296 297 297 297 297 297 296 297 298 299 299 300 301 300 301 302 303 302 303 304 306 308 310 311 313 315 315 315 316 316 316 316
276 266 270 275 277 279 278 277 268 275 280 279 280 279 276 275 273 271 271 272 269 263 266 267 271 269 276 277 279 279 280 281 281 283 283 285 286 286 287 288 289 289 290 291 291 292 292 293 293 293 294 294 294 295 296 296 297 297 297 296 297 297 297 298 299 299 300 300 299 301 301 301 301 301 302 303 304 306 307 310 311 313 313 314 313 314
273 273 263 275 279 276 272 276 274 275 275 277 277 275 277 274 275 274 268 268 270 268 265 264 262 268 275 277 280 279 280 281 282 282 284 285 286 287 287 288 289 289 290 291 291 291 292 292 293 294 294 294 295 295 295 295 296 296 297 297 297 296 296 297 298 297 298 298 299 298 300 301 300 301 301 300 301 302 304 305 305 307 309 307 310 310
265 267 267 272 272 273 274 278 278 277 278 277 276 274 276 274 269 263 262 272 270 265 263 262 264 271 277 281 281 280 281 282 283 282 284 285 286 287 288 288 289 289 290 290 291 291 291 292 292 293 294 294 294 295 294 295 295 295 295 296 296 296 296 296 297 296 296 297 297 297 299 299 299 300 300 300 302 303 303 304 305 306 306 307 308 307
278 274 269 265 268 271 276 278 277 277 278 279 278 276 275 273 269 262 261 262 266 269 270 265 264 268 277 279 280 281 281 282 283 283 284 285 286 287 288 289 289 289 289 290 290 291 291 291 291 292 292 293 293 294 294 294 294 295 295 295 295 295 296 296 296 295 295 295 296 298 298 298 299 299 300 302 304 305 305 306 307 308 308 308 309 308
283 266 266 267 267 271 274 272 274 272 276 276 277 278 277 274 274 270 269 273 270 268 262 261 264 271 279 279 281 281 281 282 284 284 284 285 286 287 288 289 289 288 289 289 290 290 291 291 291 292 291 292 293 293 293 294 294 294 294 295 295 295 295 296 296 295 294 295 295 296 296 296 297 298 301 303 305 305 306 307 307 307 307 308 308 308
268 267 267 259 257 263 266 268 270 270 275 272 276 276 277 277 276 274 270 270 271 271 270 263 262 265 276 280 281 282 283 284 285 285 285 285 286 287 288 289 289 289 289 289 289 289 290 290 290 291 291 291 292 292 293 293 294 294 294 294 294 295 295 295 295 294 294 294 294 295 295 296 295 296 300 302 304 304 305 305 305 306 306 307 306 306
273 270 267 261 257 256 258 259 264 270 273 276 276 276 277 277 275 271 264 270 269 272 268 261 263 274 278 280 280 282 283 284 285 285 286 286 286 287 288 288 288 288 288 288 288 288 289 289 290 290 291 291 291 291 292 293 293 294 294 294 294 294 295 295 294 293 293 293 293 294 293 293 293 295 297 299 300 301 302 302 303 304 304 305 306 305
272 274 267 263 261 259 265 267 273 279 278 274 275 276 275 276 275 274 275 273 269 270 268 270 272 274 276 277 280 282 283 283 283 284 285 286 287 287 287 287 287 288 288 288 288 288 288 289 289 290 290 291 291 291 291 292 292 293 293 293 294 294 294 294 294 293 292 292 291 292 293 292 291 292 292 294 297 299 300 299 298 299 300 299 301 301
269 270 270 266 266 273 276 277 279 279 274 275 273 273 275 275 276 273 270 270 275 269 267 274 275 273 275 277 280 282 283 284 284 284 285 286 287 287 287 287 288 287 287 287 287 287 287 288 289 289 290 290 290 291 291 291 292 292 293 293 293 293 293 294 293 292 292 291 291 292 292 291 290 289 290 291 294 297 297 297 297 296 296 296 297 297
268 267 270 273 274 276 277 276 277 276 274 275 275 274 273 274 274 267 268 275 273 271 269 275 275 273 276 278 281 283 284 284 283 284 285 286 286 286 287 286 286 286 286 286 286 286 286 286 288 289 289 290 289 290 290 290 291 292 292 293 293 293 293 293 292 292 292 291 291 291 291 290 289 289 289 290 293 296 296 296 295 294 293 293 294 295
270 268 272 275 274 272 272 275 276 275 275 273 273 274 275 273 272 273 273 275 273 272 275 276 275 276 278 280 282 283 285 285 284 285 286 285 285 286 286 285 285 284 284 284 285 285 286 286 287 288 289 289 289 289 289 290 290 291 291 291 292 292 293 293 292 292 292 291 291 291 290 288 287 287 287 291 294 294 292 291 291 291 291 292 291 291
276 268 277 273 273 272 270 273 273 273 270 268 274 275 275 274 273 273 271 273 271 271 272 273 273 274 280 282 282 284 284 284 284 284 284 284 284 285 286 285 282 282 282 283 284 285 285 286 287 288 288 289 289 289 289 289 290 290 290 291 291 292 292 292 292 292 292 292 292 291 289 287 287 285 287 290 291 292 291 292 290 290 289 289 290 290
278 274 274 272 272 269 271 271 272 268 270 269 271 271 268 268 269 268 270 273 271 268 270 270 270 275 280 280 280 281 281 282 282 282 282 282 283 285 285 282 280 281 281 283 284 284 285 286 287 287 288 288 289 288 288 288 289 289 289 290 291 291 292 292 291 291 291 292 292 291 290 288 287 286 287 289 291 291 289 289 289 289 289 289 289 289
274 273 272 273 272 271 273 273 271 269 264 264 263 268 274 273 275 275 276 277 277 276 273 271 276 278 279 280 278 279 280 281 282 281 281 282 283 286 281 280 280 281 282 283 283 284 285 285 286 287 288 288 289 288 288 288 288 288 289 289 290 290 291 291 291 291 291 291 291 291 290 288 288 288 288 289 289 288 288 288 288 287 287 287 287 288
278 278 276 279 272 272 273 273 271 263 260 262 272 276 277 276 276 274 275 276 277 278 278 280 279 280 279 279 278 278 280 281 280 281 282 282 285 282 280 280 281 281 282 283 284 284 284 285 286 287 287 288 288 288 288 288 288 288 289 289 289 289 289 290 290 290 290 290 290 290 289 288 288 288 288 288 288 287 287 287 286 286 287 287 287 288
278 278 276 278 273 270 269 271 268 260 260 270 276 278 278 278 277 276 276 277 278 277 276 276 277 278 279 280 280 281 282 281 281 280 281 282 283 280 280 280 281 281 282 283 283 283 284 285 285 286 286 287 287 287 287 288 288 288 289 289 288 289 289 289 289 289 289 289 290 289 288 287 287 288 287 287 287 287 286 286 286 286 286 287 287 287
276 276 276 276 276 276 272 270 262 261 266 275 277 279 279 278 277 277 277 280 278 276 276 276 277 278 279 279 280 282 280 279 279 279 280 281 281 280 280 280 281 282 282 283 283 283 283 284 284 285 286 287 287 287 287 287 288 288 288 289 288 288 288 288 288 289 289 289 289 289 288 287 287 287 287 287 286 286 286 285 285 285 285 286 286 286
279 278 277 272 275 269 271 270 269 274 273 271 275 276 277 276 276 276 270 275 278 276 276 276 277 278 278 278 279 279 278 277 276 276 279 280 280 281 281 281 282 282 282 283 283 283 284 284 284 285 286 286 286 285 286 287 288 288 288 288 288 287 287 287 287 288 288 288 289 288 287 286 286 287 287 287 286 286 285 285 285 285 286 286 286 286
281 276 277 273 272 274 271 269 268 264 261 264 276 278 279 279 279 277 274 274 277 276 278 277 276 277 277 277 277 276 276 274 272 274 278 279 281 281 281 281 282 282 282 282 283 283 283 284 284 285 285 284 284 285 286 287 287 287 287 287 287 287 287 287 287 288 288 288 289 288 287 286 286 286 286 286 286 285 285 284 285 285 285 285 285 284
281 281 279 274 270 270 270 267 266 262 265 273 276 277 277 276 277 276 271 270 276 276 277 277 276 276 276 275 275 275 274 270 271 274 278 279 280 281 280 281 281 281 281 282 281 282 282 283 284 284 284 284 284 285 286 286 286 286 286 287 287 287 286 286 287 287 287 288 288 288 286 286 285 286 287 287 286 285 284 284 284 284 285 285 284 283
276 277 277 273 272 272 270 267 264 263 264 269 275 276 276 276 278 273 264 267 276 275 275 274 274 274 275 275 275 274 272 269 271 275 279 279 280 280 280 280 280 281 281 281 282 282 282 283 283 283 283 283 284 285 286 286 286 286 286 286 286 286 286 287 287 288 287 287 287 287 286 285 285 285 286 286 285 284 284 284 284 284 284 283 283 282
265 265 270 268 264 267 271 269 268 268 274 275 274 276 275 276 277 265 263 270 274 274 274 275 274 275 275 274 274 273 274 276 277 278 279 279 279 279 280 281 280 280 280 281 281 283 282 282 282 282 283 283 284 285 285 285 285 285 285 286 286 285 286 287 287 287 287 287 286 286 285 284 284 284 285 285 285 284 283 283 283 283 283 282 282 282
259 260 265 265 264 264 263 262 265 268 274 275 276 277 277 274 263 264 272 276 275 274 275 274 275 275 275 275 275 275 277 278 278 278 278 278 278 279 279 279 280 280 281 281 282 281 281 281 282 282 283 283 284 284 285 285 284 284 285 285 285 286 287 287 287 287 286 286 285 285 284 284 283 283 284 283 284 283 282 283 283 283 283 282 282 281
264 263 264 264 261 261 262 264 265 262 270 277 275 274 274 269 269 273 274 274 274 275 275 275 275 275 275 275 276 276 276 277 277 277 278 278 278 278 278 278 278 278 279 279 280 281 281 281 281 281 282 283 283 284 284 284 283 284 284 284 285 287 287 287 287 286 285 284 284 284 283 283 283 282 282 282 283 283 282 282 282 282 282 282 281 280
269 263 257 258 266 262 263 265 266 272 275 277 276 269 271 276 277 277 275 274 274 275 275 275 275 276 276 275 276 276 276 276 277 277 277 277 277 278 278 278 278 278 279 279 280 280 280 280 281 281 281 282 283 283 283 283 283 283 283 283 286 286 286 286 286 286 284 283 283 283 282 282 282 282 281 282 283 282 282 281 281 281 281 281 280 279
272 270 266 266 267 268 265 269 275 275 276 276 276 277 277 277 276 276 275 275 275 275 275 275 275 276 276 276 276 276 276 277 277 277 276 277 277 277 277 277 277 278 278 278 279 280 280 280 280 280 280 281 281 282 282 283 282 282 282 284 285 286 286 286 285 284 283 283 282 281 281 280 280 281 280 281 282 281 281 280 281 280 280 280 280 279
273 274 271 272 271 273 274 276 277 277 277 278 277 277 276 275 275 275 275 274 275 276 276 276 276 276 277 277 276 276 276 277 277 277 276 276 276 276 277 277 277 278 278 278 278 279 279 280 279 279 279 280 280 281 282 282 282 281 282 284 285 285 286 285 284 283 282 282 281 280 279 278 279 279 280 280 281 281 281 280 280 279 279 279 279 278
270 271 270 270 271 270 266 274 274 275 276 275 275 275 275 276 276 276 275 275 276 276 276 276 276 276 277 277 276 276 276 277 276 276 276 276 276 276 276 276 277 277 277 277 278 278 278 278 278 278 278 278 279 280 281 281 281 282 283 283 284 285 285 284 283 282 282 282 281 279 279 280 279 278 279 279 280 280 280 280 280 279 279 278 278 277
270 271 271 272 271 269 271 275 275 276 275 276 276 276 277 278 278 276 276 276 277 276 276 277 276 276 276 276 277 276 277 277 276 276 275 275 275 276 276 276 276 276 277 277 277 278 277 277 277 277 277 277 278 279 280 280 280 281 282 283 284 284 284 283 283 282 282 282 281 280 280 280 279 279 279 279 279 279 279 280 280 279 279 278 278 277
269 272 267 267 267 271 273 275 276 276 276 276 277 277 277 277 276 276 275 276 276 275 276 276 276 277 277 277 277 277 276 277 276 275 275 275 275 275 275 276 276 276 276 276 277 277 277 277 277 277 277 277 278 278 279 279 280 281 281 282 283 283 283 282 282 282 282 282 281 280 280 280 280 280 279 279 279 279 280 280 279 279 280 280 280 279
273 271 273 271 269 268 269 273 274 268 269 273 274 275 275 275 274 274 275 274 275 275 277 276 277 277 277 277 277 277 276 276 276 275 274 275 275 275 275 275 276 276 276 276 277 276 276 276 276 276 276 277 277 277 278 278 279 280 281 281 282 283 282 282 282 282 282 282 281 281 281 280 280 280 279 279 278 278 279 281 282 281 280 279 281 281
272 273 273 270 269 269 274 275 275 275 275 275 276 277 276 276 276 275 275 276 277 277 277 276 276 276 277 277 277 276 275 275 275 275 274 274 275 275 275 275 275 275 275 276 275 275 275 276 276 276 275 276 277 277 277 278 278 279 280 281 282 282 282 282 282 282 282 282 281 281 281 281 280 280 280 279 279 279 279 279 281 283 283 282 282 283
Wind_Speed
2 7 5 3 1 2 2 2 4 2 1 3 4 4 1 1 2 3 4 3 3 2 1 2 4 2 4 6 9 11 9 9 9 8 7 8 9 9 8 8 7 5 6 5 7 7 6 7 6 6 5 6 6 7 8 9 10 11 12 9 12 10 9 10 9 8 8 9 8 7 10 11 8 8 8 9 9 8 9 8 9 9 9 8 8 9
7 7 4 0 2 1 0 0 2 4 5 4 4 4 3 2 2 1 2 5 5 3 4 6 6 5 5 5 8 9 7 7 8 9 7 9 9 8 7 8 9 8 6 6 9 9 6 7 7 6 5 4 5 8 7 10 12 11 10 11 12 8 10 11 11 10 10 10 10 10 10 9 8 8 9 10 8 10 8 8 8 8 8 9 9 7
6 6 2 3 2 1 1 2 4 4 4 4 4 1 3 4 4 6 2 3 2 4 6 5 6 8 8 7 7 5 5 4 4 2 4 5 8 7 8 7 9 10 10 10 9 8 7 8 8 7 6 5 6 7 6 9 8 9 10 11 11 9 10 11 11 10 11 9 8 9 8 8 7 6 7 8 8 7 9 9 9 9 9 9 8 8
6 3 5 4 1 1 3 4 5 5 5 5 5 6 0 2 4 3 4 3 6 1 3 6 5 7 7 5 5 3 3 3 4 3 3 2 3 6 7 7 8 9 10 11 10 9 8 6 7 7 8 7 5 6 6 6 8 8 9 10 11 11 11 9 10 12 10 9 8 8 6 4 7 7 6 7 7 8 8 10 9 9 8 9 9 9
3 2 4 2 2 3 3 4 7 6 4 2 4 2 1 2 3 1 4 5 3 2 0 4 3 3 6 7 8 6 3 3 6 7 4 2 2 4 5 6 4 6 9 10 12 13 12 11 10 8 9 8 7 6 6 6 6 7 10 11 11 10 10 10 9 11 8 6 5 5 3 3 3 3 4 4 9 9 8 8 8 9 8 10 10 9
5 4 2 3 5 5 6 7 4 4 5 2 0 1 2 2 2 4 4 4 6 2 5 4 5 3 4 5 5 6 7 10 4 7 9 9 9 8 11 11 10 8 4 7 12 13 12 12 12 10 8 8 9 9 7 5 7 7 9 9 9 9 9 10 10 10 8 8 8 7 8 9 9 10 8 11 14 8 9 10 7 7 9 9 9 9
2 4 5 3 6 5 6 4 1 2 3 5 1 1 2 2 1 2 4 2 3 1 4 3 3 5 6 7 6 5 6 7 7 7 9 10 12 11 11 10 11 12 14 14 13 15 17 17 16 15 13 11 11 12 9 7 7 8 9 8 8 9 9 9 8 9 8 9 9 12 12 12 11 12 12 11 7 6 6 5 7 8 7 9 10 9
4 7 9 9 7 6 5 7 4 3 5 2 0 0 0 2 1 1 2 3 1 1 2 6 3 0 4 5 3 7 4 7 11 14 14 13 14 14 13 14 13 13 12 12 15 17 17 17 16 18 17 13 13 12 11 10 8 8 9 8 8 7 8 8 8 9 10 11 11 11 12 11 11 12 14 7 7 6 5 6 7 6 7 8 9 10
2 4 6 7 6 7 5 1 3 2 1 1 3 1 2 1 0 2 2 1 1 3 6 7 3 2 1 5 6 4 6 9 12 12 12 13 14 14 15 15 15 14 13 14 15 17 17 18 18 17 18 17 14 12 12 12 12 10 8 8 6 8 8 7 8 9 10 11 11 11 10 10 10 11 11 7 6 5 6 8 6 7 7 8 9 9
1 1 2 2 4 4 2 3 3 1 4 1 2 1 2 3 3 2 1 3 4 5 4 4 3 2 4 6 6 3 5 9 9 10 9 10 11 12 13 14 15 15 14 14 14 14 16 16 16 15 14 17 15 12 12 12 11 11 8 6 6 7 7 7 7 9 9 11 9 10 10 12 11 9 9 7 8 6 6 7 7 7 7 7 6 7
3 4 5 4 5 2 2 2 0 0 2 3 3 1 4 6 4 3 5 2 5 7 4 2 4 1 2 4 4 3 3 3 7 8 9 10 12 14 13 14 14 14 14 13 14 15 15 14 14 15 17 17 17 13 13 13 13 12 10 7 6 7 6 5 7 8 10 9 9 10 11 12 12 11 8 8 9 8 7 8 8 8 6 5 7 7
6 5 3 2 2 3 0 2 2 1 1 1 2 2 4 3 6 6 5 5 5 3 5 1 3 1 2 3 3 3 1 5 6 7 9 11 11 13 13 13 13 12 12 13 13 15 16 18 20 19 20 20 19 17 17 15 15 14 12 10 10 7 5 5 6 7 8 8 9 10 10 12 12 11 9 10 11 9 9 9 9 7 5 6 6 6
8 6 2 5 3 11 5 4 6 7 8 8 2 7 4 2 5 2 7 4 1 2 1 5 4 3 2 5 6 6 7 7 5 3 5 6 11 13 13 13 12 11 12 13 13 13 14 15 16 17 17 18 19 17 16 15 14 14 14 14 12 11 6 6 5 6 6 7 9 10 12 12 11 11 11 10 11 9 9 8 7 6 7 6 6 7
3 2 10 11 4 6 5 5 5 6 8 7 5 2 5 3 4 1 2 1 3 5 5 2 3 1 3 3 2 0 3 3 4 4 4 5 10 12 12 11 12 12 12 13 13 13 13 14 14 13 13 14 15 17 17 15 13 13 12 13 14 14 9 7 6 6 5 7 7 8 9 9 8 9 9 9 10 10 8 7 8 8 9 8 9 8
6 7 9 8 6 6 5 3 1 1 2 2 1 2 3 6 5 1 2 1 2 3 5 4 4 3 4 2 2 1 1 2 3 4 5 6 9 10 9 12 17 18 16 14 14 14 14 15 14 13 13 13 13 15 15 14 14 13 13 13 14 15 14 12 10 7 6 6 6 6 6 7 7 8 8 9 8 8 8 8 8 8 7 7 8 8
1 2 5 2 4 3 5 4 0 0 1 1 1 3 5 1 0 2 3 3 0 2 4 2 3 2 2 1 1 3 4 10 8 13 14 17 15 15 15 16 15 16 16 16 15 16 17 16 14 14 14 14 13 14 13 14 13 13 13 12 11 9 10 10 10 10 9 8 7 5 6 7 6 6 6 7 7 7 8 8 7 8 7 8 7 6
4 6 3 8 3 5 7 4 3 0 1 3 4 2 1 1 2 1 2 2 1 3 4 1 6 5 6 3 4 5 12 15 16 16 15 14 15 15 15 16 15 15 15 16 16 15 16 16 16 15 14 15 15 15 15 14 11 11 13 13 15 15 12 9 8 8 7 8 8 8 7 7 6 6 7 8 8 8 7 6 7 7 8 7 6 7
3 7 3 6 12 3 2 0 2 5 0 2 5 3 1 1 4 2 1 2 4 2 4 3 3 5 5 2 4 14 17 19 21 20 18 18 19 19 15 15 15 15 14 14 15 16 16 15 17 17 16 15 16 15 15 16 13 10 9 10 13 13 15 15 12 10 8 8 8 7 7 7 7 7 7 7 7 6 6 6 6 6 7 8 7 6
0 2 4 0 2 7 5 1 4 6 7 7 2 1 1 1 4 3 2 3 2 3 3 6 1 2 1 4 8 13 15 16 18 20 21 20 18 17 17 18 18 18 17 17 17 17 18 18 18 17 17 17 16 16 14 14 13 13 13 10 7 11 11 11 10 10 9 5 6 5 6 7 7 6 6 7 7 7 7 7 6 7 8 7 7 7
3 2 5 3 3 4 4 5 4 7 8 2 0 6 1 4 1 2 1 1 5 2 5 6 5 3 2 1 5 12 12 11 14 17 17 18 15 14 14 15 17 17 16 16 16 15 16 17 17 16 16 17 17 15 15 15 15 16 14 13 14 12 9 10 11 9 10 9 8 9 7 5 5 6 6 7 7 7 7 7 6 7 6 7 6 6
1 1 2 8 9 2 5 4 2 3 7 9 10 7 6 2 1 2 2 3 2 1 2 0 5 6 6 2 9 10 9 11 12 11 13 15 16 13 11 13 15 15 15 16 16 15 16 17 18 18 17 15 14 13 13 14 14 14 13 15 14 14 15 12 10 9 8 7 7 8 9 9 7 7 6 6 6 7 7 7 6 6 6 5 6 5
2 3 1 4 8 6 1 0 1 1 2 4 3 5 3 8 8 4 1 4 3 3 1 2 7 5 6 4 8 8 10 12 10 9 10 12 15 15 12 11 12 14 15 14 15 16 16 16 18 18 18 17 17 18 19 17 16 16 16 15 14 15 13 12 12 8 9 7 7 7 7 7 7 6 6 6 5 6 6 6 7 7 7 7 7 5
2 2 3 2 0 2 4 6 1 2 0 7 5 4 3 3 4 4 1 4 3 1 0 2 1 7 4 5 9 9 8 8 9 7 9 9 12 14 15 11 8 9 11 14 15 15 16 16 15 15 17 18 18 18 18 18 17 16 16 16 15 15 17 13 12 9 8 8 8 8 6 6 6 6 7 7 6 6 6 6 6 5 6 7 7 6
5 4 5 3 6 5 2 3 2 4 1 5 4 3 5 5 1 2 4 1 1 3 2 3 0 5 2 4 9 9 6 6 7 6 8 9 8 11 15 15 14 12 11 12 13 13 14 14 15 17 18 19 19 19 19 17 17 17 16 15 15 17 17 16 14 12 10 9 9 7 7 7 6 7 6 7 6 7 6 6 6 6 6 6 6 6
1 2 4 2 5 6 5 5 1 2 5 3 2 2 2 1 2 1 1 1 0 4 6 3 5 4 5 6 10 10 11 11 10 9 7 9 8 9 12 12 13 14 12 13 14 16 16 16 17 17 18 17 18 18 18 18 18 17 17 15 16 16 15 14 14 14 13 11 11 10 7 8 6 7 7 7 6 7 7 6 6 6 6 6 5 6
2 0 3 4 3 3 3 4 5 8 8 3 0 4 4 1 2 4 1 2 0 1 6 2 6 8 4 8 9 13 11 11 10 9 8 6 6 9 10 10 13 14 16 15 15 16 18 16 14 15 18 17 17 17 18 19 19 18 18 17 14 15 17 17 14 13 14 13 12 12 10 8 7 7 7 7 7 6 6 6 5 5 5 4 6 5
2 1 1 4 5 4 5 4 4 3 4 5 9 6 4 0 0 1 1 2 2 1 3 8 9 14 14 8 12 14 12 12 14 13 12 11 11 9 7 6 9 12 15 17 16 15 15 18 19 16 15 15 17 18 17 18 19 19 20 21 18 15 14 15 15 15 14 14 13 12 11 9 8 7 6 6 7 6 5 5 5 5 4 4 3 3
3 3 1 3 5 3 2 4 5 4 4 6 5 6 4 3 3 1 2 4 2 1 7 4 6 4 8 8 10 13 12 10 10 10 11 11 11 10 9 6 9 13 15 17 19 19 18 17 17 19 18 17 16 18 19 17 17 18 18 19 20 19 16 14 15 16 15 14 14 13 12 9 7 6 6 5 5 6 4 4 4 4 4 3 2 2
3 1 3 2 3 3 6 7 5 4 3 5 6 7 8 6 2 4 5 8 4 4 9 9 7 8 10 6 9 10 12 10 10 10 9 11 11 9 9 8 9 13 15 18 19 20 20 19 18 18 19 18 18 19 20 20 19 18 19 19 17 17 19 17 16 16 16 15 14 14 11 9 7 5 5 5 4 5 5 4 3 3 3 2 2 2
3 1 2 1 7 5 6 7 6 4 3 3 5 8 8 5 7 6 9 8 6 9 12 11 11 13 11 6 7 12 12 8 8 7 9 14 16 11 9 7 11 14 16 17 18 19 20 20 19 19 18 18 19 20 19 19 20 21 19 19 18 19 18 17 19 17 17 17 15 13 10 8 6 5 4 4 4 4 4 4 3 2 2 2 2 2
2 2 2 2 3 4 4 3 3 3 2 5 8 9 8 4 5 5 3 4 5 7 9 10 9 11 3 1 7 9 10 8 7 10 13 14 15 13 10 11 14 15 17 18 18 19 19 20 20 20 20 19 19 18 18 18 18 19 21 20 19 18 17 17 18 19 16 17 16 13 11 8 7 4 4 4 3 3 4 4 3 2 2 2 2 2
2 2 1 0 3 1 2 3 5 4 5 6 10 9 7 1 1 1 2 4 4 5 4 2 3 3 5 8 4 5 8 10 9 11 14 16 15 11 11 15 17 19 20 19 18 18 19 20 21 21 20 20 19 18 17 18 18 17 18 20 20 20 19 18 18 19 19 17 16 14 12 9 7 5 5 3 3 2 3 2 2 2 2 2 2 2
1 0 2 2 4 2 2 3 5 7 3 2 2 2 2 5 3 2 5 3 6 3 3 3 3 4 7 6 6 6 8 10 11 10 14 17 13 9 12 15 19 21 20 20 19 19 18 18 18 20 20 19 18 18 18 17 17 18 17 18 19 18 18 19 18 18 19 18 16 15 12 9 8 6 5 4 2 1 1 1 1 1 1 2 2 2
1 4 2 1 2 3 6 9 5 2 1 3 2 1 1 3 3 2 3 2 2 1 0 1 5 6 6 6 9 10 8 9 13 14 11 10 8 12 16 20 19 17 17 17 17 18 18 18 18 18 19 19 19 17 17 17 16 17 15 14 15 18 19 18 18 17 17 17 16 13 11 9 7 7 5 3 1 1 0 0 0 1 1 1 3 3
3 2 2 2 2 3 5 7 5 3 5 3 1 3 2 3 3 4 2 2 3 4 4 4 5 8 8 8 7 7 5 9 12 14 14 7 5 13 17 17 17 18 18 17 19 19 18 19 20 20 21 20 19 18 18 18 17 17 17 14 15 16 17 18 18 18 16 16 16 13 11 9 8 7 4 3 2 2 1 1 1 0 0 2 3 4
3 3 2 2 3 3 1 1 3 7 4 7 4 3 1 2 0 3 3 2 2 2 3 4 6 6 7 9 8 5 7 10 10 8 8 4 9 10 13 14 16 16 17 17 18 19 19 19 19 20 20 19 18 18 16 17 17 17 18 15 13 15 15 16 18 18 16 16 15 13 11 9 9 7 4 4 3 3 3 2 2 2 2 3 4 5
5 2 2 2 1 1 1 3 6 7 12 4 3 0 1 1 1 1 3 5 5 3 4 6 7 7 8 7 5 7 9 9 7 5 2 7 10 10 10 12 13 14 14 16 17 18 18 18 18 18 18 18 18 17 17 17 17 17 18 17 15 14 15 14 16 17 17 16 15 14 11 8 9 8 6 5 5 4 4 4 3 3 2 5 5 6
6 3 1 1 2 3 2 4 4 4 4 4 2 1 1 3 3 2 1 4 3 3 4 4 5 7 8 6 6 8 8 10 13 10 7 10 12 14 15 13 12 12 13 14 15 16 17 17 18 18 17 18 19 18 16 17 18 18 18 17 16 15 16 15 15 15 15 17 16 14 11 9 8 9 7 5 6 6 5 3 3 3 2 4 6 6
4 3 4 1 3 3 2 2 2 2 8 5 6 2 4 2 2 1 1 7 3 3 3 2 5 6 4 6 9 9 11 11 12 10 10 14 16 15 16 17 15 15 15 14 15 17 18 18 18 19 18 18 19 20 19 19 19 18 18 17 17 15 16 16 15 14 15 17 17 15 11 9 9 8 7 7 6 6 7 6 5 3 3 4 5 6
3 2 3 4 4 4 2 3 6 4 6 2 3 1 4 1 3 2 6 4 1 5 3 2 5 7 7 5 6 6 5 11 13 13 12 14 13 13 13 16 18 18 18 17 15 14 16 16 17 20 20 20 19 19 19 19 18 19 18 18 16 16 17 16 15 15 15 15 15 14 11 8 9 9 8 7 6 6 6 6 5 5 6 6 6 7
0 3 1 6 3 6 7 6 3 5 6 4 3 4 5 2 3 2 9 7 3 5 4 2 5 5 5 6 4 8 6 7 11 11 11 12 14 14 13 13 14 15 16 17 17 16 15 15 15 17 19 18 18 17 17 18 18 19 18 18 17 18 18 16 15 15 15 15 14 13 12 9 8 9 8 6 7 6 6 7 7 7 7 8 7 8
2 1 4 1 2 6 4 4 7 6 7 4 3 3 2 1 2 7 5 2 4 6 5 4 5 5 5 7 7 8 10 10 11 10 10 10 11 12 13 14 15 16 15 14 18 17 15 16 16 19 20 19 19 19 17 17 19 20 19 18 19 20 18 16 16 15 15 16 15 13 11 10 9 7 6 5 6 7 6 6 7 7 7 7 9 11
6 4 5 4 2 2 0 2 6 6 3 2 2 1 1 1 6 3 1 3 3 5 5 5 4 6 4 10 9 10 11 11 10 11 10 10 12 13 13 13 14 15 16 17 17 17 16 16 17 18 19 19 18 17 17 19 21 20 19 20 22 20 18 17 16 15 15 15 15 13 11 9 9 8 5 6 6 8 8 7 8 8 7 8 9 10
4 2 3 4 6 3 5 6 7 7 1 1 2 2 2 5 4 1 1 7 3 5 4 5 5 5 7 9 11 11 10 11 11 10 10 11 11 12 12 12 12 13 14 14 15 16 17 16 16 18 18 18 17 17 17 17 20 21 21 22 20 18 18 18 16 15 15 14 13 12 10 8 8 7 5 6 7 7 8 8 8 8 8 8 9 10
8 6 7 4 4 6 7 8 7 2 4 4 3 5 6 7 3 2 3 6 5 5 4 4 7 7 6 8 10 10 10 9 11 11 11 12 12 12 12 12 12 13 13 13 14 15 14 16 18 18 18 17 19 18 16 16 18 22 24 22 19 19 19 18 18 16 16 16 13 11 9 7 6 6 6 6 8 9 8 9 9 9 7 8 8 9
2 3 1 0 7 4 6 9 10 10 12 12 6 3 4 3 4 4 5 6 6 7 5 7 8 9 10 7 8 10 10 11 12 13 12 12 12 12 11 11 12 12 12 13 14 14 15 16 17 17 19 20 19 18 16 16 16 21 23 21 20 19 18 18 18 18 18 16 13 11 8 6 6 6 6 7 7 9 10 12 11 10 9 8 8 8
3 2 2 5 2 4 8 2 6 8 5 4 5 4 5 6 7 5 5 7 7 6 7 6 8 9 11 10 10 11 12 12 12 13 12 11 11 12 12 13 12 11 12 14 14 13 13 13 16 17 18 19 19 17 17 17 17 17 19 20 20 19 18 18 18 18 17 15 13 9 6 7 6 6 6 7 6 6 7 8 8 9 10 9 10 9
5 1 1 10 8 8 14 11 9 8 5 6 7 9 13 14 12 7 7 7 6 6 6 9 8 10 8 9 10 10 12 11 12 13 12 11 11 11 12 12 12 13 13 13 14 13 12 14 15 17 18 19 18 17 17 17 18 18 19 19 18 18 18 18 17 17 17 16 12 9 7 7 8 8 7 7 8 8 8 7 8 10 12 12 12 12
3 1 7 3 2 7 10 15 19 15 11 14 16 12 10 9 9 8 7 7 7 8 9 10 8 10 10 12 11 10 12 13 12 11 11 11 11 11 11 12 12 12 13 14 14 13 14 13 15 17 17 18 17 16 16 17 18 17 19 18 18 17 17 18 18 18 17 14 10 9 7 7 6 7 7 7 7 6 7 9 10 9 7 5 7 9
2 13 10 2 11 11 12 16 5 6 9 4 5 8 8 8 6 8 7 7 8 9 11 12 12 9 9 11 11 10 12 13 13 10 10 11 12 12 12 12 11 12 13 13 13 14 15 14 14 15 17 17 16 16 16 17 18 17 17 17 17 16 17 18 17 17 16 12 10 8 7 6 7 7 7 7 7 6 3 4 4 2 5 6 7 9
10 14 5 8 9 12 11 10 5 9 10 10 10 8 7 7 6 7 9 10 11 12 12 11 12 13 12 12 9 10 12 13 15 11 11 11 12 12 12 12 12 12 13 13 13 15 15 16 15 15 17 18 17 16 16 16 18 18 18 17 16 16 17 17 16 15 14 12 10 8 8 7 7 7 6 6 7 6 7 6 5 9 10 7 7 7
Wind_Direction
78 77 74 98 24 285 313 81 105 183 78 84 68 88 67 127 302 277 298 249 328 357 253 279 305 276 290 285 292 301 328 334 340 355 340 327 328 331 334 332 324 313 279 286 293 292 302 308 308 301 280 255 247 237 226 224 224 224 222 215 225 216 208 211 208 203 198 204 210 219 222 228 221 224 226 232 229 229 230 221 219 220 222 219 217 217
74 70 26 231 280 234 209 151 90 75 51 85 87 63 18 19 355 252 288 348 348 75 295 314 330 318 284 282 284 309 341 325 338 345 345 335 325 329 340 334 331 309 303 322 331 332 344 339 331 327 309 286 266 250 231 228 229 227 222 220 227 208 212 213 211 208 207 207 204 204 217 221 223 223 220 234 228 229 229 225 223 222 222 221 221 216
53 77 309 276 280 99 58 52 63 91 88 49 86 124 57 335 250 294 290 339 312 33 281 324 346 308 304 293 294 282 297 309 341 324 283 301 320 330 336 337 330 336 331 333 331 332 341 336 334 337 323 297 259 273 245 239 240 233 224 228 227 216 216 215 211 208 215 206 207 205 213 204 223 223 225 231 232 227 227 225 222 221 220 218 222 213
54 357 323 312 140 53 30 36 75 68 68 85 41 51 338 245 36 306 299 355 335 96 297 308 316 305 328 318 305 311 7 285 293 305 294 261 301 317 321 326 323 327 334 336 331 325 325 328 321 325 324 314 297 274 269 252 236 236 232 230 226 223 220 221 215 216 218 207 204 211 211 206 205 218 217 232 235 231 227 230 220 223 218 217 222 213
115 307 309 9 86 106 75 37 63 68 49 6 90 107 15 335 282 159 290 335 318 15 358 329 3 344 7 4 347 325 301 315 353 341 4 16 294 289 297 333 340 324 331 333 335 338 337 333 328 318 307 312 309 291 274 264 245 233 234 231 227 225 222 220 217 217 215 201 192 191 194 206 258 278 246 241 243 227 229 237 223 224 210 217 220 217
30 347 342 45 44 54 75 48 37 112 51 18 17 143 262 247 260 286 307 8 22 346 351 47 14 335 314 338 337 318 349 353 351 7 357 349 360 2 1 353 351 353 349 335 337 335 330 328 325 323 314 316 311 306 293 275 264 252 247 238 229 226 223 221 216 207 198 205 201 185 196 213 221 235 221 227 234 218 220 228 225 222 213 214 219 217
46 340 44 75 80 61 73 82 355 100 109 81 304 164 278 237 193 285 329 68 9 50 320 55 121 265 339 346 325 338 332 332 345 22 357 358 357 358 355 356 355 353 352 357 358 355 353 347 342 336 335 329 321 314 312 304 282 268 257 247 229 224 225 221 216 198 193 203 208 208 211 214 215 226 235 234 239 231 229 215 217 219 206 210 214 219
18 358 23 27 45 60 52 52 4 90 90 85 217 187 98 80 35 340 91 118 203 250 325 37 86 217 344 312 306 318 339 353 6 359 356 355 356 356 357 360 1 359 1 2 357 356 355 352 350 341 333 332 324 315 316 312 301 283 272 256 236 228 226 218 210 197 195 203 208 213 219 220 222 222 241 227 233 224 221 220 218 209 212 207 210 215
65 358 34 17 34 46 45 296 320 18 70 189 317 315 330 318 268 114 78 149 196 76 322 344 343 54 300 273 317 349 33 10 2 352 348 351 354 356 357 0 0 1 3 3 359 354 351 352 348 347 340 333 329 329 325 319 310 301 288 270 249 234 226 224 207 204 201 207 208 212 219 226 229 231 239 236 223 209 208 228 218 212 212 211 212 214
42 84 352 94 70 19 293 284 270 16 25 292 305 30 64 64 61 58 89 56 349 69 312 349 10 88 307 285 335 345 62 15 347 338 343 352 354 355 357 356 360 1 359 358 356 351 349 350 349 345 339 347 345 334 326 320 315 311 304 286 266 247 233 224 210 207 210 208 209 215 219 226 236 234 244 237 241 228 214 229 227 223 218 214 211 215
259 299 252 48 5 306 287 291 164 173 234 263 17 30 2 42 23 16 53 42 58 30 263 320 354 110 318 274 231 61 71 25 339 342 352 354 357 359 359 359 360 358 356 354 350 350 346 343 346 350 353 349 349 347 343 337 333 326 324 308 279 262 254 229 216 205 213 207 207 218 220 225 234 235 235 238 243 238 234 235 237 230 227 209 215 207
30 11 35 332 295 316 113 344 18 62 307 69 51 46 30 358 13 31 352 37 78 287 275 307 303 101 105 290 291 232 329 39 17 350 344 349 356 357 357 356 355 355 352 351 353 350 347 348 352 354 354 350 344 349 352 346 343 342 336 333 312 292 265 256 232 212 213 206 211 216 220 226 229 231 230 232 242 235 237 237 243 236 221 221 217 211
41 34 303 326 295 26 1 50 346 2 19 32 41 39 88 301 35 348 9 11 117 187 281 339 355 45 246 228 262 321 17 1 358 0 338 343 359 359 356 353 349 351 353 354 353 350 350 350 350 351 346 346 347 344 343 342 342 345 346 347 336 327 329 292 272 235 223 215 214 212 218 225 226 228 229 231 238 237 232 231 236 232 230 221 220 216
312 261 22 349 8 15 32 70 342 12 351 14 49 81 74 54 53 1 289 231 330 299 273 325 330 169 243 302 283 318 333 327 326 360 4 9 9 358 353 349 348 351 358 355 350 350 349 347 346 346 343 341 339 341 341 341 343 342 343 349 349 338 340 335 326 306 278 245 235 227 228 230 228 235 234 234 237 241 235 224 229 225 227 225 225 221
51 355 1 9 15 344 34 87 227 205 318 324 143 100 160 136 151 189 202 116 215 219 295 309 61 250 69 216 127 172 301 274 346 4 20 30 11 360 349 356 359 357 353 352 348 346 345 344 345 344 341 339 338 338 340 342 342 339 344 348 347 343 346 345 335 329 315 301 294 274 255 245 235 237 237 238 238 245 243 233 233 238 232 231 233 223
250 226 283 308 262 340 11 310 274 35 31 286 149 90 54 322 177 133 208 138 101 321 344 340 210 196 200 128 1 37 355 12 24 25 16 8 3 360 360 2 356 352 347 346 345 343 344 344 344 344 343 339 339 339 338 342 341 341 339 337 337 335 334 341 347 346 335 320 313 304 288 276 268 261 258 257 248 248 246 252 241 247 240 240 242 240
6 28 306 328 29 48 3 338 2 258 98 308 50 17 309 174 124 52 45 341 19 47 263 194 339 311 300 14 6 11 14 7 15 10 13 6 358 359 1 356 352 347 346 344 342 340 339 342 343 343 342 340 341 341 338 334 337 333 333 337 338 339 338 346 346 336 338 333 333 319 309 299 284 268 255 256 261 257 261 258 258 254 253 252 240 244
352 271 315 38 358 324 41 225 326 30 35 52 51 328 342 359 113 116 110 5 58 114 265 49 260 316 31 308 330 14 14 11 2 2 359 0 2 1 354 351 348 344 340 337 337 340 341 343 344 343 342 342 339 337 334 334 333 331 328 332 335 335 339 335 339 338 338 334 331 326 324 318 312 306 298 288 276 273 267 258 251 251 255 249 248 238
106 3 301 124 266 287 341 37 357 356 39 80 100 261 83 29 31 342 80 5 37 340 294 324 277 284 137 288 12 360 19 11 2 357 354 356 355 351 347 346 347 346 347 348 348 345 344 344 343 343 340 338 339 337 335 333 336 336 340 339 334 324 323 319 321 327 328 332 323 316 316 317 314 309 303 297 295 296 283 274 265 257 255 263 252 249
20 97 306 288 358 298 6 50 30 320 331 1 293 26 355 103 128 35 195 153 94 250 43 303 51 272 218 233 34 12 33 12 9 359 345 342 346 351 347 347 346 347 346 346 348 347 343 342 343 343 343 342 340 338 337 337 340 344 342 339 337 329 323 323 324 326 325 328 330 324 320 312 307 304 301 299 302 294 281 277 279 278 276 263 264 254
330 54 24 298 328 43 29 7 89 346 359 357 27 15 10 353 267 109 18 100 137 114 154 296 335 281 278 198 37 38 23 19 9 351 340 335 338 344 353 350 345 346 347 348 348 348 348 346 345 345 346 344 342 343 346 347 344 337 339 340 339 335 327 324 313 312 304 314 315 320 318 315 316 307 309 308 302 295 293 292 287 280 275 294 272 263
59 14 83 318 4 23 186 54 344 235 28 78 63 47 337 27 13 55 287 8 26 82 250 90 265 278 299 49 69 56 22 9 353 350 338 336 333 337 348 356 353 346 347 349 349 349 350 350 347 346 347 349 350 350 349 347 345 346 343 338 334 333 331 327 321 309 301 296 288 279 298 303 304 302 305 295 287 292 286 287 291 294 300 287 284 277
118 108 86 354 186 291 292 313 314 234 238 75 64 43 83 100 105 88 45 295 10 278 151 181 219 283 246 74 64 53 21 359 343 344 343 336 333 335 339 348 357 351 345 346 348 349 349 348 348 346 347 348 349 347 347 346 346 342 339 339 336 333 328 328 317 306 293 291 297 299 291 293 288 292 286 280 277 284 276 271 272 267 268 277 282 274
75 50 23 305 308 302 317 341 36 39 76 23 19 54 43 18 69 171 185 208 165 303 20 349 78 246 302 54 50 33 10 345 336 347 345 339 334 338 338 339 349 353 351 348 347 348 350 347 346 350 351 350 350 348 346 342 341 339 339 339 334 333 328 327 326 320 311 301 296 293 295 290 293 282 281 292 293 288 279 268 263 255 254 255 256 265
37 303 111 9 358 338 343 348 10 332 52 71 337 358 64 29 345 269 83 195 13 217 190 124 254 257 258 33 24 6 0 352 346 348 350 340 340 341 337 335 340 344 350 353 351 349 347 351 352 349 347 347 345 344 343 342 340 338 335 338 337 330 326 324 324 323 318 310 303 300 297 296 294 288 290 286 288 288 290 285 278 268 258 256 250 250
89 225 91 94 100 52 333 321 318 342 1 344 342 343 339 346 357 30 33 347 108 313 83 158 252 260 308 30 2 356 349 341 344 345 343 336 337 341 335 332 339 343 345 349 351 352 350 345 345 346 345 343 343 342 341 340 338 335 334 333 336 331 330 327 323 321 318 315 308 301 299 295 298 292 289 290 288 290 296 296 293 290 281 272 268 263
123 109 102 150 147 181 209 222 238 313 320 318 304 308 308 343 100 128 195 211 223 327 288 242 244 289 307 356 1 345 340 339 339 344 344 343 340 340 333 325 338 343 345 346 346 346 346 346 344 342 342 340 338 340 339 338 336 335 334 332 334 335 329 324 322 321 321 314 307 300 296 296 290 286 288 288 288 293 298 303 304 308 304 310 292 290
54 37 351 150 189 212 260 282 290 303 280 273 290 297 286 269 264 172 163 225 146 29 282 250 226 258 302 345 354 331 327 336 332 338 337 337 335 334 334 328 341 349 347 344 344 345 344 341 340 339 338 339 339 336 336 337 334 332 332 330 330 331 331 328 325 321 319 314 308 299 293 291 289 285 282 284 288 294 301 310 318 321 319 324 340 331
129 124 264 155 291 281 270 266 277 291 248 245 265 270 283 276 215 197 230 227 206 207 237 271 294 306 299 337 334 319 327 325 326 330 332 323 320 333 339 341 350 350 348 346 341 339 339 339 337 336 336 335 336 338 337 334 333 333 332 330 329 328 329 327 324 321 317 313 304 298 293 291 288 282 283 284 288 298 308 310 317 325 331 342 343 348
88 301 207 85 320 303 282 269 273 256 270 282 270 269 263 267 259 228 248 242 198 228 242 264 292 289 294 311 329 324 313 314 320 325 332 339 333 332 336 344 352 348 347 344 339 336 334 334 334 333 334 335 336 336 335 334 331 330 329 326 327 327 326 329 322 320 316 311 304 299 293 284 280 281 284 286 285 298 308 313 321 333 345 352 345 348
52 299 28 306 286 300 287 289 306 248 230 293 288 287 290 275 263 255 234 256 211 267 268 267 272 279 281 1 329 310 305 311 330 350 349 335 327 335 338 349 349 346 343 341 338 335 332 331 332 332 332 333 334 333 330 328 326 325 324 325 325 323 323 323 318 317 314 308 305 302 297 289 277 276 275 273 302 308 304 311 323 344 357 355 1 2
40 268 318 288 319 295 289 290 282 315 289 268 286 298 302 328 294 259 203 216 157 231 250 243 274 285 341 330 320 307 308 324 346 354 345 331 327 334 350 346 345 345 342 338 335 333 333 331 330 330 330 329 329 329 329 327 324 322 320 321 322 322 321 320 318 317 314 312 310 306 301 292 281 272 263 271 268 293 311 324 338 352 360 6 10 358
202 358 334 330 306 244 250 275 306 318 349 6 282 246 238 235 225 249 271 239 219 223 284 285 275 5 317 317 323 330 335 334 346 352 337 320 327 339 346 341 344 343 337 334 332 331 330 328 326 324 324 325 326 326 324 322 319 317 317 318 316 317 317 317 316 315 314 313 312 306 302 288 277 267 259 248 242 311 341 321 344 353 11 18 354 24
209 246 278 273 275 312 332 325 326 46 71 220 229 178 207 260 264 257 289 296 307 141 322 300 311 317 316 333 349 338 347 348 337 325 312 300 336 342 341 345 338 327 325 325 325 326 326 325 323 321 319 318 318 320 319 318 315 311 311 311 312 315 314 314 314 314 312 310 307 303 296 283 268 260 253 235 186 120 62 346 347 352 359 57 57 67
265 297 284 38 286 281 308 319 347 20 229 241 248 235 202 232 200 215 279 161 81 39 12 349 336 337 339 344 327 329 345 330 319 310 304 319 345 350 341 327 324 325 322 323 323 324 324 322 321 320 320 321 321 321 322 318 317 315 313 317 315 312 312 313 312 311 311 308 306 305 295 280 264 254 241 208 169 138 135 149 210 99 51 90 90 90
229 227 246 243 201 252 215 9 12 242 228 260 269 272 349 105 211 85 124 177 114 88 353 337 332 321 336 330 328 340 330 310 298 285 282 328 356 339 321 319 318 320 320 320 320 318 320 320 318 317 315 316 317 317 316 313 314 315 312 315 312 308 308 308 309 308 311 310 309 305 294 278 267 255 233 196 172 165 167 182 210 176 163 113 98 92
210 218 251 270 160 211 213 198 235 303 311 338 82 338 72 233 275 286 272 235 179 51 3 331 321 330 328 323 329 328 322 314 307 293 307 338 320 318 312 307 311 310 311 313 314 312 312 313 313 314 313 313 314 315 314 314 314 313 313 314 314 311 307 307 306 308 311 310 309 305 293 274 264 253 228 201 183 180 179 176 187 197 188 126 119 110
210 196 233 67 261 152 290 287 319 339 294 279 194 304 277 233 241 224 177 276 163 348 4 322 308 322 320 319 330 330 324 331 329 325 323 319 322 321 321 313 308 305 307 307 309 309 312 313 313 313 314 312 312 313 313 314 314 314 313 312 312 314 310 309 305 306 309 309 309 304 292 271 254 250 229 206 196 185 173 164 186 189 200 137 129 113
222 270 308 199 272 360 336 276 255 239 247 214 189 230 285 257 196 131 103 269 174 345 327 308 309 317 315 329 328 342 346 333 314 309 322 323 323 325 320 317 316 315 312 312 312 312 312 314 314 312 313 314 314 317 317 315 314 314 313 312 314 313 309 307 307 310 311 309 307 302 286 266 254 244 232 213 198 177 169 173 172 174 132 115 110 109
132 220 243 271 248 219 220 252 246 214 259 276 207 265 269 269 147 75 330 279 329 332 337 353 332 320 324 329 327 329 335 313 311 310 318 314 314 312 311 312 316 316 316 314 312 310 310 312 316 317 317 317 315 316 316 316 315 313 312 312 314 312 308 308 309 307 305 303 300 297 285 259 249 241 230 216 185 170 168 155 150 159 142 126 122 118
14 329 167 224 222 258 249 263 271 270 270 237 189 243 265 207 130 223 239 250 294 320 303 305 301 295 299 309 321 309 282 255 277 287 301 304 309 311 311 308 305 309 310 313 312 315 315 316 316 313 312 312 314 316 316 315 314 313 313 312 313 310 308 308 307 307 306 304 300 292 281 264 245 239 229 214 183 169 157 159 160 154 149 137 128 118
346 83 283 79 231 236 212 212 241 253 234 181 239 229 251 76 264 224 233 213 306 306 292 270 279 275 275 288 286 275 279 282 285 291 295 297 297 299 303 306 309 309 309 310 313 317 319 318 317 315 315 316 317 318 317 316 314 312 313 313 310 308 309 309 308 308 307 305 301 290 276 264 251 238 228 199 169 162 163 162 153 153 152 145 139 132
196 149 220 195 235 50 55 263 315 303 284 107 176 10 40 151 233 202 250 283 229 255 268 283 256 284 288 293 283 279 287 291 292 297 299 300 303 305 306 307 309 310 313 317 318 317 319 319 317 316 314 315 317 318 318 317 313 311 312 310 308 308 310 309 308 307 306 303 298 289 274 262 247 232 216 194 182 166 163 162 158 155 155 150 141 133
200 148 254 270 179 180 178 193 206 217 200 233 93 188 233 228 234 223 337 289 234 224 250 262 264 256 272 273 283 290 288 294 298 297 299 298 298 300 302 303 305 307 310 311 313 315 320 317 316 315 316 316 317 318 318 317 313 312 312 308 308 308 308 309 308 308 305 302 295 287 275 257 245 231 211 192 175 169 162 163 163 159 157 157 147 141
200 192 180 204 221 171 205 215 241 234 189 214 182 241 235 243 199 197 208 240 261 262 218 249 273 273 262 272 283 284 292 289 290 294 298 297 299 299 299 301 302 303 305 308 311 313 316 316 316 315 315 316 316 318 317 316 313 311 310 309 312 309 310 309 310 308 305 302 296 285 272 255 238 222 206 197 177 168 168 163 165 160 166 155 154 151
273 216 172 274 252 270 254 238 256 270 266 273 266 228 237 252 258 227 233 246 234 240 252 265 281 286 289 281 284 290 285 290 295 294 294 295 296 295 294 297 301 303 306 310 312 317 315 314 313 313 315 316 318 318 317 316 314 310 307 309 310 309 309 308 308 307 304 300 294 283 265 247 236 223 209 198 192 184 175 171 172 168 165 162 159 158
249 197 167 228 239 354 277 252 245 252 277 276 280 286 257 232 235 223 230 225 245 256 263 255 255 273 278 284 274 274 282 285 288 288 290 292 292 293 296 298 299 303 307 307 306 310 312 313 312 312 314 314 316 318 316 315 312 307 307 308 309 309 309 308 306 303 301 296 292 279 254 234 223 211 208 198 191 186 181 178 175 168 166 169 163 161
309 147 222 248 251 228 254 260 264 250 242 266 266 282 285 284 283 266 225 232 236 250 251 263 275 277 270 268 266 270 277 280 281 284 287 287 287 290 293 294 298 304 303 302 304 307 307 306 306 308 312 313 315 316 314 313 311 310 309 307 308 309 309 307 305 303 301 296 288 275 245 237 220 210 199 199 188 181 183 188 181 177 174 175 172 163
186 61 251 155 211 266 289 280 268 277 272 263 268 265 257 255 259 262 255 255 260 264 264 263 245 253 265 268 272 273 275 275 270 272 278 282 283 284 287 291 294 296 299 302 302 305 303 301 301 302 306 307 311 313 312 311 309 310 309 308 308 310 309 306 304 302 298 293 284 266 246 234 223 211 202 196 200 201 199 188 182 180 182 186 175 164
216 253 238 296 276 259 243 260 279 305 287 272 247 245 257 249 230 250 265 269 262 265 272 278 278 262 246 251 258 259 264 271 273 269 269 273 277 281 285 288 289 292 294 294 297 298 296 295 297 302 304 305 309 312 312 310 309 308 308 307 308 309 308 307 305 303 298 293 278 265 246 230 223 217 206 197 187 175 130 60 112 148 173 166 161 162
214 237 201 223 225 252 254 255 234 243 269 262 266 264 251 259 261 261 254 257 267 268 270 272 277 283 278 266 243 239 247 256 265 269 272 275 276 277 277 281 285 287 288 293 297 295 295 297 299 300 302 306 311 311 311 309 308 307 306 307 307 309 306 306 304 299 296 291 278 259 241 230 222 211 205 197 186 172 158 136 91 92 93 94 121 113